OBJECT K

Last updated on Oct. 9, 2018, 8:17 a.m. UTC

1 43189U 18014K   18282.22678372  .00000804  00000-0  75760-4 0  9998
2 43189  97.7162 189.1785 0012403 125.5921 234.6458 14.96511555 35926
UTC
Height (km)
Latitude
Longitude
Inclination
Orbital Period
UTC large
Height (km)
Speed (km/s)
/
Latitude / Longitude
Inclination (degrees)
Orbital Period (minutes)
Azimuth
Elevation
Range (km)
Doppler Factor
iOS Compass Heading
iOS Angle